Location: Biltmore Gardens
(41.6070°N, 83.4666°W)
Time: 13:34:24
(UTC+00:00)

Meteor 1-27 - Pass Details

Date: 14 July 2020
Orbit: 838 x 892 km, 81.3° (Epoch: 04 August)

Event Time Altitude Azimuth Distance (km) Brightness Sun altitude
Rises 02:12:18 0° 351° (N) 3,475 8.3 -10.6°
Reaches altitude 10° 02:14:44 10° 352° (N) 2,540 7.5 -11.0°
Maximum altitude 02:20:32 80° 80° (E) 903 4.3 -11.8°
Enters shadow 02:26:09 11° 168° (SSE) 2,471 6.1 -12.5°
